Volver al catálogo

THOR ABLESTAR DEB

ActivoLEO
NORAD 158·DEBRIS·🇺🇸 United States

Lanzado Jun 29, 1961 desde Cape Canaveral Space Force Station

Loading…

Próximos Pases (próximas 24 horas)

TLE

ActualizadoSource: Space-Track

Época: Sep 10, 2026, 14:55 UTC

1 00158U 61015AU  26253.62177443  .00000216  00000-0  68495-3 0  9993
2 00158  67.0748  45.9323 0611190 192.4585 166.0722 12.66261655 16030

Sigue THOR ABLESTAR DEB en tiempo real con AllMySat

Download on the App Store